Prescott, AZ

6:29 AM MST on August 22, 2017 (GMT -0700)
Love

Weather History for KPRC - January, 2012

Change the Weather History Date:

Monday, January 23, 2012

  Actual Average Record
Temperature  
Mean Temperature 36 °F 39 °F  
Max Temperature 48 °F 52 °F 66 °F (1999)
Min Temperature 25 °F 26 °F 9 °F (1982)
Degree Days  
Heating Degree Days 28    
Month to date heating degree days  
Since 1 July heating degree days  
Cooling Degree Days 0    
Month to date cooling degree days  
Year to date cooling degree days  
Moisture  
Dew Point 23 °F    
Average Humidity 66    
Maximum Humidity 100    
Minimum Humidity 28    
Precipitation  
Precipitation 0.02 in 0.03 in 0.48 in (1967)
Month to date precipitation 0.85  
Year to date precipitation 0.85  
Sea Level Pressure  
Sea Level Pressure 29.96 in    
Wind  
Wind Speed 5 mph (South)    
Max Wind Speed 16 mph    
Max Gust Speed 22 mph    
Visibility 7 miles    
Events Fog , Snow    
T = Trace of Precipitation, MM = Missing Value Source: NWS Daily Summary

Daily Weather History Graph

Daily Weather History Graph

Search for Another Location

Airport or City:

Trip Planner

Search our weather history database for the weather conditions in past years. The results will help you decide how hot, cold, wet, or windy it might be!

Date:

Astronomy

Jan. 23, 2012 Rise Set
Actual Time 7:33 AM MST 5:49 PM MST
Civil Twilight 7:06 AM MST 6:16 PM MST
Nautical Twilight 6:36 AM MST 6:47 PM MST
Astronomical Twilight 6:06 AM MST 7:17 PM MST
Moon 7:34 AM MST (1/23) 6:37 PM MST (1/23)
Length of Visible Light 11h 09m
Length of Day
10h 16m
New Moon, 0% of the Moon is Illuminated
Jan 23
New Moon
Jan 30
First Quarter
Feb 7
Full
Feb 14
Last Quarter
Feb 21
New

Hourly Weather History & Observations

Time (MST) Temp. Windchill Dew Point Humidity Pressure Visibility Wind Dir Wind Speed Gust Speed Precip Events Conditions
12:53 AM 28.9 °F 25.2 °F 18.0 °F 64% 30.10 in 10.0 mi South 3.5 mph - N/A   Clear
1:53 AM 27.0 °F 23.0 °F 16.0 °F 63% 30.09 in 10.0 mi South 3.5 mph - N/A   Clear
2:53 AM 25.0 °F 20.7 °F 15.1 °F 66% 30.09 in 10.0 mi SSW 3.5 mph - N/A   Clear
3:53 AM 27.0 °F 23.0 °F 15.1 °F 61% 30.05 in 10.0 mi SSE 3.5 mph - N/A   Clear
4:53 AM 28.0 °F - 17.1 °F 63% 30.04 in 10.0 mi Calm Calm - N/A   Clear
5:53 AM 30.2 °F 26.7 °F 17.6 °F 60% 30.06 in 10.0 mi SSE 3.5 mph - N/A   Clear
6:53 AM 28.9 °F - 19.9 °F 69% 30.04 in 10.0 mi Calm Calm - N/A   Clear
7:53 AM 32.0 °F - 21.0 °F 64% 30.06 in 10.0 mi Calm Calm - N/A   Mostly Cloudy
8:53 AM 37.9 °F 32.1 °F 17.1 °F 43% 30.04 in 10.0 mi SE 8.1 mph - N/A   Mostly Cloudy
9:53 AM 39.9 °F 32.9 °F 17.1 °F 40% 30.01 in 10.0 mi ESE 11.5 mph - N/A   Mostly Cloudy
10:53 AM 44.6 °F 40.2 °F 17.6 °F 34% 30.04 in 10.0 mi SE 8.1 mph - N/A   Mostly Cloudy
11:53 AM 48.0 °F - 18.0 °F 30% 29.96 in 10.0 mi South 6.9 mph - N/A   Mostly Cloudy
12:53 PM 48.0 °F - 16.0 °F 28% 29.91 in 10.0 mi SSW 6.9 mph - N/A   Overcast
1:53 PM 46.0 °F 42.5 °F 16.0 °F 30% 29.92 in 10.0 mi WSW 6.9 mph 21.9 mph N/A   Overcast
2:53 PM 46.0 °F 41.4 °F 16.0 °F 30% 29.91 in 10.0 mi South 9.2 mph - N/A   Overcast
3:53 PM 44.1 °F 40.1 °F 19.9 °F 38% 29.88 in 10.0 mi SSE 6.9 mph - N/A   Scattered Clouds
4:53 PM 45.0 °F 41.2 °F 19.9 °F 37% 29.86 in 10.0 mi SSW 6.9 mph - N/A   Overcast
5:53 PM 42.1 °F 36.1 °F 21.0 °F 43% 29.86 in 10.0 mi South 10.4 mph - N/A   Mostly Cloudy
6:53 PM 39.9 °F 31.4 °F 24.1 °F 53% 29.88 in 9.0 mi SSW 16.1 mph - N/A   Mostly Cloudy
7:53 PM 36.0 °F 30.3 °F 28.9 °F 76% 29.89 in 10.0 mi WSW 6.9 mph - N/A   Overcast
8:53 PM 35.1 °F 27.9 °F 30.9 °F 85% 29.89 in 10.0 mi NW 9.2 mph - 0.00 in   Overcast
9:06 PM 33.8 °F 27.7 °F 30.2 °F 87% 29.94 in 10.0 mi WNW 6.9 mph - N/A   Overcast
9:35 PM 33.8 °F 30.8 °F 30.2 °F 87% 29.94 in 10.0 mi NNE 3.5 mph - N/A   Overcast
9:53 PM 33.1 °F 28.7 °F 30.9 °F 92% 29.89 in 1.8 mi NNE 4.6 mph - 0.00 in Snow Light Snow
10:06 PM 32.0 °F 26.4 °F 30.2 °F 93% 29.93 in 1.0 mi NE 5.8 mph - 0.01 in Snow Light Snow
10:11 PM 32.0 °F 26.4 °F 30.2 °F 93% 29.93 in 0.8 mi NE 5.8 mph - 0.01 in Snow Light Snow
10:25 PM 32.0 °F 27.5 °F 30.2 °F 93% 29.92 in 1.0 mi NE 4.6 mph - 0.02 in Snow Light Snow
10:37 PM 32.0 °F - 30.2 °F 93% 29.92 in 0.5 mi Calm Calm - 0.02 in Fog , Snow Light Snow
10:53 PM 32.0 °F - 30.9 °F 96% 29.87 in 0.5 mi Calm Calm - 0.02 in Fog , Snow Light Snow
11:01 PM 32.0 °F - 32.0 °F 100% 29.92 in 0.5 mi Calm Calm - 0.00 in Fog , Snow Light Snow
11:43 PM 32.0 °F - 30.2 °F 93% 29.92 in 0.2 mi Calm Calm - 0.00 in Fog Fog
11:53 PM 32.0 °F - 30.9 °F 96% 29.85 in 0.5 mi Calm Calm - 0.00 in Fog Fog